Flag for Canada Weather past 2 weeks in Edmonton, Alberta, Canada

Now
63 °F

Sunny.


Feels Like: 63 °F
Forecast: 39 / 60 °F
Wind: 21 mph from West

Location: Edmonton Municipal

Current Time: Oct 23, 2014 at 3:34:49 PM

Latest Report: Oct 23, 2014 at 3:00 PM


Visibility: 9 mi

Pressure: 29.46 "Hg

Humidity: 30%

Dew point: 30 °F

Location of EdmontonLocation

Historic Weather in Edmonton — Graph

°F

Edmonton temperature yesterday

Maximum temperature yesterday: 63 °F (at 2:00 PM)
Minimum temperature yesterday: 37 °F (at 2:00 AM)
Average temperature yesterday: 49 °F

Past Weeks' High & Low Weather Summary

 TemperatureHumidityPressure
High72 °F (Oct 10, 4:00 PM)100% (Oct 16, 6:00 AM)30.19 "Hg (Oct 16, 6:00 AM)
Low32 °F (Oct 13, 8:00 AM)27% (Oct 20, 3:00 PM)29.44 "Hg (Oct 23, 12:00 PM)
Average50 °F60%29.77 "Hg
* Reported Oct 8 2:00 PM — Oct 23 2:00 PM, Edmonton, Weather by CustomWeather, © 2014

Note: Actual official high and low records may vary slightly from our data, if they occured in-between our weather recording intervals... More about our weather records

Advertising

Edmonton weather history for previous 24 hours

 ConditionsComfort  
Time TempWeatherWind HumidityBarometerVisibility
2:00 PM
Oct 23
59 °FSunny.14 mph39%29.45 "Hg9 mi
1:00 PM50 °FPassing clouds.10 mph54%29.46 "Hg9 mi
12:00 PM46 °FSunny.6 mph66%29.44 "Hg9 mi
11:00 AM45 °FSunny.3 mph66%29.45 "Hg9 mi
10:00 AM45 °FSunny.3 mph66%29.44 "Hg9 mi
9:00 AM39 °FClear.3 mph75%29.44 "Hg9 mi
8:00 AM37 °FClear.2 mph81%29.45 "Hg9 mi
7:00 AM39 °FClear.3 mph75%29.45 "Hg9 mi
6:00 AM43 °FClear.No wind66%29.46 "Hg9 mi
5:00 AM43 °FClear.No wind71%29.47 "Hg9 mi
4:00 AM41 °FClear.2 mph70%29.49 "Hg9 mi
3:00 AM43 °FClear.2 mph66%29.52 "Hg9 mi
2:00 AM46 °FClear.2 mph62%29.52 "Hg9 mi
1:00 AM48 °FClear.3 mph58%29.54 "Hg9 mi
12:00 AM48 °FClear.6 mph58%29.55 "Hg9 mi
11:00 PM
Oct 22
52 °FClear.6 mph50%29.57 "Hg9 mi
10:00 PM52 °FClear.8 mph47%29.59 "Hg9 mi
9:00 PM54 °FClear.6 mph44%29.58 "Hg9 mi
8:00 PM55 °FClear.9 mph41%29.59 "Hg9 mi
7:00 PM55 °FSunny.9 mph41%29.62 "Hg9 mi
6:00 PM57 °FSunny.12 mph36%29.61 "Hg9 mi
5:00 PM59 °FSunny.16 mph36%29.61 "Hg9 mi
4:00 PM61 °FSunny.14 mph31%29.62 "Hg9 mi
3:00 PM61 °FSunny.20 mph31%29.62 "Hg9 mi
Weather by CustomWeather, © 2014

See weather overviewHow to use our weather pages